CDT,Max TemperatureF,Mean TemperatureF,Min TemperatureF,Max Dew PointF,MeanDew PointF,Min DewpointF,Max Humidity, Mean Humidity, Min Humidity, Max Sea Level PressureIn, Mean Sea Level PressureIn, Min Sea Level PressureIn, Max VisibilityMiles, Mean VisibilityMiles, Min VisibilityMiles, Max Wind SpeedMPH, Mean Wind SpeedMPH, Max Gust SpeedMPH,PrecipitationIn, CloudCover, Events, WindDirDegrees
2013-4-1,72,59,45,55,49,45,100,75,49,30.11,30.04,29.97,10,4,0,12,4,14,0.00,2,Fog,29
2013-4-2,55,48,40,48,39,36,92,73,54,30.23,30.19,30.12,10,10,5,22,12,26,0.11,5,Rain,33
2013-4-3,45,42,39,38,36,33,92,81,70,30.23,30.18,30.14,10,10,7,21,12,28,0.19,8,Rain,36
2013-4-4,47,45,42,43,39,35,100,83,65,30.13,30.07,30.03,10,8,2,28,9,33,0.55,8,Rain,348
2013-4-5,67,51,35,46,39,36,100,66,32,30.22,30.14,30.10,10,7,0,9,2,12,0.00,0,Fog,51
2013-4-6,74,60,46,50,44,41,86,59,31,30.11,30.02,29.90,10,10,10,18,9,25,0.00,1,,175
2013-4-7,71,65,58,59,55,51,86,72,57,30.03,29.96,29.89,10,10,10,16,9,20,0.00,5,,177
2013-4-8,79,69,58,61,59,55,90,71,52,29.95,29.88,29.81,10,10,10,21,10,26,0.00,5,,168
2013-4-9,84,72,59,67,63,59,100,77,54,29.94,29.87,29.81,10,10,6,28,13,36,0.00,4,,162
2013-4-10,82,66,49,68,64,51,100,81,62,29.89,29.77,29.63,10,8,1,30,13,39,1.57,8,Rain-Thunderstorm,191
2013-4-11,56,50,43,50,43,39,100,78,55,29.86,29.80,29.76,10,9,4,16,7,21,0.75,7,Rain,288
2013-4-12,72,56,40,50,41,37,89,60,31,30.01,29.93,29.87,10,9,1,16,5,21,0.00,1,,260
2013-4-13,72,60,48,55,47,41,84,65,45,30.10,30.00,29.88,10,10,10,12,6,14,0.00,0,,87
2013-4-14,75,66,56,61,57,52,93,73,53,29.86,29.77,29.68,10,10,10,18,9,22,0.00,2,,147
2013-4-15,84,72,59,69,63,58,100,78,55,29.89,29.84,29.77,10,9,2,17,8,21,0.00,3,,152
2013-4-16,87,78,69,72,69,64,93,72,50,30.01,29.95,29.86,10,9,6,21,11,28,0.00,4,,172
2013-4-17,84,77,70,72,69,66,93,76,58,30.04,29.95,29.80,10,10,6,23,12,30,0.00,4,,167
2013-4-18,76,61,46,68,59,38,97,84,71,29.97,29.77,29.65,10,8,0,25,15,33,1.52,8,Fog-Rain-Thunderstorm,252
2013-4-19,59,51,42,40,32,27,76,53,30,30.18,30.09,29.99,10,10,10,22,10,30,0.00,2,,285
2013-4-20,68,54,40,51,40,33,86,59,32,30.27,30.21,30.17,10,10,10,13,4,15,0.00,0,,140
2013-4-21,69,58,46,49,45,40,100,69,37,30.31,30.24,30.17,10,10,10,14,5,18,0.00,0,,90
2013-4-22,74,60,45,51,47,43,93,64,35,30.20,30.10,29.99,10,10,7,18,6,23,0.00,0,,121
2013-4-23,79,66,52,63,58,49,93,74,54,30.03,29.97,29.88,10,10,7,23,8,29,0.02,5,Rain,180
2013-4-24,59,51,42,52,43,39,93,72,51,30.31,30.15,29.96,10,10,5,25,9,33,0.30,6,Rain-Thunderstorm,343
2013-4-25,68,54,39,46,43,39,100,70,39,30.41,30.34,30.29,10,8,1,13,3,18,0.00,1,,100
2013-4-26,66,57,48,52,48,45,93,71,48,30.31,30.24,30.15,10,10,10,17,6,22,0.01,6,Rain-Thunderstorm,86
2013-4-27,79,68,57,66,60,52,100,84,67,30.14,30.03,29.90,10,9,3,21,7,28,0.12,8,Rain-Thunderstorm,209
2013-4-28,70,62,53,57,54,52,100,79,57,30.03,29.99,29.95,10,10,6,10,3,16,0.00,4,,316
2013-4-29,83,67,50,66,57,50,100,72,43,30.00,29.95,29.85,10,5,0,12,5,15,0.00,2,Fog,118
2013-4-30,83,69,54,61,57,52,93,67,40,29.92,29.89,29.85,10,10,10,15,5,20,0.00,0,,131